Location: Gro�sch�nbrunn
(49.5760°N, 11.8868°E)
Time: 15:32:47
(UTC+00:00)

Cosmos 1937 Rocket - Pass Details

Date: 18 September 2020
Orbit: 747 x 779 km, 74.0° (Epoch: 27 October)

Event Time Altitude Azimuth Distance (km) Brightness Sun altitude
Rises 18:54:36 0° 216° (SW) 3,234 6.9 -16.0°
Reaches altitude 10° 18:57:02 10° 221° (SW) 2,307 6.2 -16.4°
Maximum altitude 19:02:10 54° 298° (WNW) 925 4.3 -17.1°
Drops below altitude 10° 19:07:17 10° 17° (NNE) 2,301 6.1 -17.9°
Sets 19:09:43 0° 22° (NNE) 3,225 6.8 -18.2°
